{"data":{"norad_id":69675,"epoch":"2026-07-22T03:50:26.353536Z","epoch_age_seconds":5243445,"freshness":"OLD","line1":"1 69675U 26144B   26203.16002724  .01103206  10639-4  94920-3 0  9998","line2":"2 69675  19.4340 311.5809 6979822 202.9941  97.3887  2.75416453   754","mean_motion":2.75416453,"eccentricity":0.6979822,"inclination_deg":19.434,"raan_deg":311.5809,"arg_perigee_deg":202.9941,"mean_anomaly_deg":97.3887,"bstar":0.0009492,"rev_number":75,"period_min":522.8445811115,"perigee_km":114.79907480104,"apogee_km":30125.969316747,"semimajor_km":21498.521195774,"source":"CELESTRAK","updated_at":"2026-07-23T09:00:49.322914Z"}}